Time,TemperatureF,DewpointF,PressureIn,WindDirection,WindDirectionDegrees,WindSpeedMPH,WindSpeedGustMPH,Humidity,HourlyPrecipIn,Conditions,Clouds,dailyrainin,SoftwareType,DateUTC
2013-01-23 00:03:00,68.0,54.0,30.21,SSE,157,8.0,13.0,60,0.00,,,0.01,,2013-01-23 05:03:00,
2013-01-23 00:12:00,68.0,54.0,30.21,SSE,157,8.0,13.0,60,0.00,,,0.01,,2013-01-23 05:12:00,
2013-01-23 00:22:00,68.0,53.0,30.21,NE,41,8.0,10.0,58,0.00,,,0.01,,2013-01-23 05:22:00,
2013-01-23 00:33:00,68.0,53.0,30.21,NNE,13,7.0,9.0,59,0.00,,,0.01,,2013-01-23 05:33:00,
2013-01-23 00:43:00,68.0,53.0,30.21,NNE,13,7.0,9.0,59,0.00,,,0.01,,2013-01-23 05:43:00,
2013-01-23 00:53:00,68.0,54.0,30.21,SE,134,6.0,10.0,61,0.00,,,0.01,,2013-01-23 05:53:00,
2013-01-23 01:02:00,67.0,53.0,30.21,NNE,31,6.0,12.0,60,0.00,,,0.01,,2013-01-23 06:02:00,
2013-01-23 01:12:00,67.0,53.0,30.21,NNE,31,6.0,12.0,60,0.00,,,0.01,,2013-01-23 06:12:00,
2013-01-23 01:22:00,67.0,53.0,30.20,NE,37,6.0,8.0,61,0.00,,,0.01,,2013-01-23 06:22:00,
2013-01-23 01:32:00,67.0,53.0,30.21,North,10,5.0,8.0,60,0.00,,,0.01,,2013-01-23 06:32:00,
2013-01-23 01:43:00,67.0,53.0,30.21,North,10,5.0,8.0,60,0.00,,,0.01,,2013-01-23 06:43:00,
2013-01-23 01:53:00,67.0,54.0,30.20,NNE,30,5.0,9.0,62,0.00,,,0.01,,2013-01-23 06:53:00,
2013-01-23 02:02:00,67.0,53.0,30.20,ENE,74,6.0,9.0,60,0.00,,,0.01,,2013-01-23 07:02:00,
2013-01-23 02:12:00,67.0,53.0,30.20,ENE,74,6.0,9.0,60,0.00,,,0.01,,2013-01-23 07:12:00,
2013-01-23 02:23:00,67.0,54.0,30.20,NE,45,6.0,10.0,63,0.00,,,0.01,,2013-01-23 07:23:00,
2013-01-23 02:33:00,67.0,54.0,30.20,East,96,4.0,7.0,63,0.00,,,0.01,,2013-01-23 07:33:00,
2013-01-23 02:42:00,67.0,54.0,30.20,East,96,4.0,7.0,63,0.00,,,0.01,,2013-01-23 07:42:00,
2013-01-23 02:53:00,67.0,53.0,30.20,ENE,62,4.0,9.0,61,0.00,,,0.01,,2013-01-23 07:53:00,
2013-01-23 03:02:00,67.0,53.0,30.20,North,10,5.0,7.0,61,0.00,,,0.01,,2013-01-23 08:02:00,
2013-01-23 03:13:00,67.0,53.0,30.20,North,10,5.0,7.0,61,0.00,,,0.01,,2013-01-23 08:13:00,
2013-01-23 03:23:00,67.0,54.0,30.21,SSE,148,5.0,7.0,62,0.00,,,0.01,,2013-01-23 08:23:00,
2013-01-23 03:33:00,67.0,54.0,30.20,North,2,3.0,6.0,62,0.00,,,0.01,,2013-01-23 08:33:00,
2013-01-23 03:43:00,67.0,54.0,30.20,North,2,3.0,6.0,62,0.00,,,0.01,,2013-01-23 08:43:00,
2013-01-23 03:53:00,67.0,53.0,30.21,East,81,4.0,7.0,61,0.00,,,0.01,,2013-01-23 08:53:00,
2013-01-23 04:03:00,67.0,53.0,30.21,East,99,6.0,8.0,61,0.00,,,0.01,,2013-01-23 09:03:00,
2013-01-23 04:12:00,67.0,53.0,30.21,East,99,6.0,8.0,61,0.00,,,0.01,,2013-01-23 09:12:00,
2013-01-23 04:22:00,67.0,53.0,30.21,ESE,118,5.0,10.0,60,0.00,,,0.01,,2013-01-23 09:22:00,
2013-01-23 04:33:00,67.0,52.0,30.21,NE,35,6.0,8.0,58,0.00,,,0.01,,2013-01-23 09:33:00,
2013-01-23 04:43:00,67.0,52.0,30.21,NE,35,6.0,8.0,58,0.00,,,0.01,,2013-01-23 09:43:00,
2013-01-23 04:53:00,67.0,53.0,30.20,NE,46,3.0,7.0,61,0.00,,,0.01,,2013-01-23 09:53:00,
2013-01-23 05:03:00,67.0,53.0,30.20,ENE,68,6.0,6.0,61,0.00,,,0.01,,2013-01-23 10:03:00,
2013-01-23 05:12:00,67.0,53.0,30.20,ENE,68,6.0,6.0,61,0.00,,,0.01,,2013-01-23 10:12:00,
2013-01-23 05:23:00,67.0,52.0,30.20,NNE,25,3.0,7.0,58,0.00,,,0.01,,2013-01-23 10:23:00,
2013-01-23 05:33:00,67.0,52.0,30.21,East,95,4.0,8.0,59,0.00,,,0.01,,2013-01-23 10:33:00,
2013-01-23 05:43:00,67.0,52.0,30.21,East,95,4.0,8.0,59,0.00,,,0.01,,2013-01-23 10:43:00,
2013-01-23 05:53:00,67.0,51.0,30.21,NNE,13,4.0,9.0,57,0.00,,,0.01,,2013-01-23 10:53:00,
2013-01-23 06:02:00,67.0,51.0,30.21,ENE,59,6.0,9.0,57,0.00,,,0.01,,2013-01-23 11:02:00,
2013-01-23 06:12:00,67.0,51.0,30.21,ENE,59,6.0,9.0,57,0.00,,,0.01,,2013-01-23 11:12:00,
2013-01-23 06:23:00,67.0,52.0,30.21,ESE,122,5.0,7.0,59,0.00,,,0.01,,2013-01-23 11:23:00,
2013-01-23 06:33:00,67.0,52.0,30.23,SE,130,3.0,6.0,59,0.00,,,0.01,,2013-01-23 11:33:00,
2013-01-23 06:43:00,67.0,52.0,30.23,SE,130,3.0,6.0,59,0.00,,,0.01,,2013-01-23 11:43:00,
2013-01-23 06:53:00,65.0,55.0,30.24,NNE,16,1.0,2.0,70,0.00,,,0.01,,2013-01-23 11:53:00,
2013-01-23 07:03:00,63.0,55.0,30.24,NNW,327,3.0,3.0,75,0.00,,,0.01,,2013-01-23 12:03:00,
2013-01-23 07:13:00,63.0,55.0,30.24,NNW,327,3.0,3.0,75,0.00,,,0.01,,2013-01-23 12:13:00,
2013-01-23 07:22:00,62.0,55.0,30.24,North,2,2.0,5.0,77,0.00,,,0.01,,2013-01-23 12:22:00,
2013-01-23 07:33:00,61.0,54.0,30.24,NW,318,1.0,3.0,79,0.00,,,0.01,,2013-01-23 12:33:00,
2013-01-23 07:43:00,61.0,54.0,30.24,NW,318,1.0,3.0,79,0.00,,,0.01,,2013-01-23 12:43:00,
2013-01-23 07:53:00,61.0,55.0,30.25,East,84,2.0,3.0,81,0.00,,,0.01,,2013-01-23 12:53:00,
2013-01-23 08:04:00,61.0,55.0,30.25,North,358,2.0,3.0,81,0.00,,,0.01,,2013-01-23 13:04:00,
2013-01-23 08:13:00,61.0,55.0,30.25,North,358,2.0,3.0,81,0.00,,,0.01,,2013-01-23 13:13:00,
2013-01-23 08:23:00,61.0,55.0,30.25,NNE,19,2.0,5.0,81,0.00,,,0.01,,2013-01-23 13:23:00,
2013-01-23 08:33:00,62.0,55.0,30.27,NNW,335,3.0,3.0,79,0.00,,,0.01,,2013-01-23 13:33:00,
2013-01-23 08:42:00,62.0,55.0,30.27,NNW,335,3.0,3.0,79,0.00,,,0.01,,2013-01-23 13:42:00,
2013-01-23 08:53:00,63.0,56.0,30.27,NW,319,3.0,5.0,77,0.00,,,0.01,,2013-01-23 13:53:00,
2013-01-23 09:03:00,64.0,57.0,30.27,NNE,30,4.0,6.0,77,0.00,,,0.01,,2013-01-23 14:03:00,
2013-01-23 09:12:00,64.0,57.0,30.27,NNE,30,4.0,6.0,77,0.00,,,0.01,,2013-01-23 14:12:00,
2013-01-23 09:23:00,65.0,57.0,30.28,SW,225,3.0,5.0,76,0.00,,,0.01,,2013-01-23 14:23:00,
2013-01-23 09:33:00,66.0,57.0,30.28,NW,313,3.0,6.0,74,0.00,,,0.01,,2013-01-23 14:33:00,
2013-01-23 09:43:00,66.0,57.0,30.28,NW,313,3.0,6.0,74,0.00,,,0.01,,2013-01-23 14:43:00,
2013-01-23 09:53:00,66.0,57.0,30.29,NNW,348,2.0,5.0,74,0.00,,,0.01,,2013-01-23 14:53:00,
2013-01-23 10:03:00,66.0,57.0,30.29,NNW,335,5.0,8.0,74,0.00,,,0.01,,2013-01-23 15:03:00,
2013-01-23 10:13:00,66.0,57.0,30.29,NNW,335,5.0,8.0,74,0.00,,,0.01,,2013-01-23 15:13:00,
2013-01-23 10:23:00,66.0,57.0,30.29,NW,323,4.0,6.0,73,0.00,,,0.01,,2013-01-23 15:23:00,
2013-01-23 10:33:00,66.0,57.0,30.29,East,100,2.0,6.0,74,0.00,,,0.01,,2013-01-23 15:33:00,
2013-01-23 10:43:00,66.0,57.0,30.29,East,100,2.0,6.0,74,0.00,,,0.01,,2013-01-23 15:43:00,
2013-01-23 10:53:00,69.0,58.0,30.29,East,81,4.0,6.0,69,0.00,,,0.01,,2013-01-23 15:53:00,
2013-01-23 11:03:00,72.0,59.0,30.29,NNE,16,5.0,6.0,63,0.00,,,0.01,,2013-01-23 16:03:00,
2013-01-23 11:12:00,72.0,59.0,30.29,NNE,16,5.0,6.0,63,0.00,,,0.01,,2013-01-23 16:12:00,
2013-01-23 11:23:00,74.0,59.0,30.29,NNE,26,4.0,6.0,60,0.00,,,0.01,,2013-01-23 16:23:00,
2013-01-23 11:33:00,74.0,57.0,30.29,NNE,32,4.0,7.0,55,0.00,,,0.01,,2013-01-23 16:33:00,
2013-01-23 11:42:00,74.0,57.0,30.29,NNE,32,4.0,7.0,55,0.00,,,0.01,,2013-01-23 16:42:00,
2013-01-23 11:53:00,75.0,55.0,30.29,ESE,109,4.0,8.0,49,0.00,,,0.01,,2013-01-23 16:53:00,
2013-01-23 12:03:00,74.0,55.0,30.28,North,9,5.0,8.0,52,0.00,,,0.01,,2013-01-23 17:03:00,
2013-01-23 12:12:00,74.0,55.0,30.28,North,9,5.0,8.0,52,0.00,,,0.01,,2013-01-23 17:12:00,
2013-01-23 12:23:00,75.0,55.0,30.27,SSE,149,3.0,8.0,49,0.00,,,0.01,,2013-01-23 17:23:00,
2013-01-23 12:33:00,75.0,55.0,30.27,North,5,6.0,9.0,49,0.00,,,0.01,,2013-01-23 17:33:00,
2013-01-23 12:42:00,75.0,55.0,30.27,North,5,6.0,9.0,49,0.00,,,0.01,,2013-01-23 17:42:00,
2013-01-23 12:53:00,75.0,54.0,30.27,East,80,6.0,7.0,48,0.00,,,0.01,,2013-01-23 17:53:00,
2013-01-23 13:03:00,73.0,54.0,30.26,SSE,158,6.0,8.0,52,0.00,,,0.01,,2013-01-23 18:03:00,
2013-01-23 13:12:00,73.0,54.0,30.26,SSE,158,6.0,8.0,52,0.00,,,0.01,,2013-01-23 18:12:00,
2013-01-23 13:23:00,76.0,56.0,30.25,ENE,69,6.0,10.0,50,0.00,,,0.01,,2013-01-23 18:23:00,
2013-01-23 13:33:00,76.0,56.0,30.25,ENE,69,6.0,10.0,50,0.00,,,0.01,,2013-01-23 18:33:00,
2013-01-23 13:43:00,75.0,56.0,30.24,West,280,3.0,7.0,52,0.00,,,0.01,,2013-01-23 18:43:00,
2013-01-23 13:53:00,77.0,57.0,30.24,NE,51,5.0,9.0,50,0.00,,,0.01,,2013-01-23 18:53:00,
2013-01-23 14:03:00,75.0,56.0,30.24,North,6,3.0,7.0,51,0.00,,,0.01,,2013-01-23 19:03:00,
2013-01-23 14:13:00,75.0,56.0,30.24,North,6,3.0,7.0,51,0.00,,,0.01,,2013-01-23 19:13:00,
2013-01-23 14:23:00,78.0,56.0,30.24,East,85,4.0,8.0,47,0.00,,,0.01,,2013-01-23 19:23:00,
2013-01-23 14:33:00,77.0,55.0,30.22,NE,42,6.0,9.0,47,0.00,,,0.01,,2013-01-23 19:33:00,
2013-01-23 14:43:00,77.0,55.0,30.22,NE,42,6.0,9.0,47,0.00,,,0.01,,2013-01-23 19:43:00,
2013-01-23 14:53:00,76.0,54.0,30.22,NNW,339,5.0,9.0,47,0.00,,,0.01,,2013-01-23 19:53:00,
2013-01-23 15:03:00,76.0,55.0,30.23,NNE,12,3.0,7.0,49,0.00,,,0.01,,2013-01-23 20:03:00,
2013-01-23 15:13:00,76.0,55.0,30.23,NNE,12,3.0,7.0,49,0.00,,,0.01,,2013-01-23 20:13:00,
2013-01-23 15:23:00,76.0,55.0,30.22,NE,35,6.0,7.0,48,0.00,,,0.01,,2013-01-23 20:23:00,
2013-01-23 15:33:00,76.0,55.0,30.23,NE,54,3.0,7.0,49,0.00,,,0.01,,2013-01-23 20:33:00,
2013-01-23 15:43:00,76.0,55.0,30.23,NE,54,3.0,7.0,49,0.00,,,0.01,,2013-01-23 20:43:00,
2013-01-23 15:54:00,76.0,54.0,30.23,SSW,194,3.0,6.0,47,0.00,,,0.01,,2013-01-23 20:54:00,
2013-01-23 16:03:00,76.0,55.0,30.23,East,90,4.0,8.0,49,0.00,,,0.01,,2013-01-23 21:03:00,
2013-01-23 16:12:00,76.0,55.0,30.23,East,90,4.0,8.0,49,0.00,,,0.01,,2013-01-23 21:12:00,
2013-01-23 16:23:00,75.0,55.0,30.23,NE,44,5.0,8.0,49,0.00,,,0.01,,2013-01-23 21:23:00,
2013-01-23 16:33:00,74.0,55.0,30.24,NE,49,3.0,8.0,51,0.00,,,0.01,,2013-01-23 21:33:00,
2013-01-23 16:43:00,74.0,55.0,30.24,NE,49,3.0,8.0,51,0.00,,,0.01,,2013-01-23 21:43:00,
2013-01-23 16:53:00,73.0,54.0,30.24,NNE,32,3.0,7.0,52,0.00,,,0.01,,2013-01-23 21:53:00,
2013-01-23 17:03:00,74.0,55.0,30.24,NE,37,2.0,7.0,52,0.00,,,0.01,,2013-01-23 22:03:00,
2013-01-23 17:12:00,74.0,55.0,30.24,NE,37,2.0,7.0,52,0.00,,,0.01,,2013-01-23 22:12:00,
2013-01-23 17:23:00,74.0,55.0,30.24,NNW,347,5.0,7.0,52,0.00,,,0.01,,2013-01-23 22:23:00,
2013-01-23 17:33:00,72.0,54.0,30.25,NNW,339,4.0,7.0,54,0.00,,,0.01,,2013-01-23 22:33:00,
2013-01-23 17:42:00,72.0,54.0,30.25,NNW,339,4.0,7.0,54,0.00,,,0.01,,2013-01-23 22:42:00,
2013-01-23 17:53:00,73.0,55.0,30.24,NE,45,3.0,6.0,54,0.00,,,0.01,,2013-01-23 22:53:00,
2013-01-23 18:03:00,71.0,54.0,30.24,NNW,345,4.0,6.0,56,0.00,,,0.01,,2013-01-23 23:03:00,
2013-01-23 18:13:00,71.0,54.0,30.24,NNW,345,4.0,6.0,56,0.00,,,0.01,,2013-01-23 23:13:00,
2013-01-23 18:23:00,69.0,53.0,30.24,ENE,57,2.0,5.0,57,0.00,,,0.00,,2013-01-23 23:23:00,
2013-01-23 18:33:00,68.0,53.0,30.24,NE,43,3.0,7.0,59,0.00,,,0.00,,2013-01-23 23:33:00,
2013-01-23 18:43:00,68.0,53.0,30.24,NE,43,3.0,7.0,59,0.00,,,0.00,,2013-01-23 23:43:00,
2013-01-23 18:53:00,68.0,54.0,30.24,NNE,29,2.0,3.0,61,0.00,,,0.00,,2013-01-23 23:53:00,
2013-01-23 19:03:00,68.0,54.0,30.24,North,354,3.0,6.0,60,0.00,,,0.00,,2013-01-24 00:03:00,
2013-01-23 19:12:00,68.0,54.0,30.24,North,354,3.0,6.0,60,0.00,,,0.00,,2013-01-24 00:12:00,
2013-01-23 19:22:00,68.0,58.0,30.24,ESE,118,2.0,5.0,71,0.00,,,0.00,,2013-01-24 00:22:00,
2013-01-23 19:32:00,67.0,58.0,30.25,NW,310,1.0,6.0,74,0.00,,,0.00,,2013-01-24 00:32:00,
2013-01-23 19:43:00,67.0,58.0,30.25,NW,310,1.0,6.0,74,0.00,,,0.00,,2013-01-24 00:43:00,
2013-01-23 19:53:00,66.0,58.0,30.26,NNW,330,3.0,6.0,76,0.00,,,0.00,,2013-01-24 00:53:00,
2013-01-23 20:03:00,65.0,58.0,30.26,East,79,1.0,6.0,78,0.00,,,0.00,,2013-01-24 01:03:00,
2013-01-23 20:12:00,65.0,58.0,30.26,East,79,1.0,6.0,78,0.00,,,0.00,,2013-01-24 01:12:00,
2013-01-23 20:23:00,64.0,57.0,30.27,NW,314,5.0,7.0,79,0.00,,,0.00,,2013-01-24 01:23:00,
2013-01-23 20:33:00,64.0,58.0,30.27,NW,317,2.0,3.0,80,0.00,,,0.00,,2013-01-24 01:33:00,
2013-01-23 20:42:00,64.0,58.0,30.27,NW,317,2.0,3.0,80,0.00,,,0.00,,2013-01-24 01:42:00,
2013-01-23 20:53:00,63.0,57.0,30.27,West,265,3.0,6.0,81,0.00,,,0.00,,2013-01-24 01:53:00,
2013-01-23 21:02:00,63.0,57.0,30.27,North,354,2.0,6.0,81,0.00,,,0.00,,2013-01-24 02:02:00,
2013-01-23 21:12:00,63.0,57.0,30.27,North,354,2.0,6.0,81,0.00,,,0.00,,2013-01-24 02:12:00,
2013-01-23 21:22:00,62.0,56.0,30.27,NW,321,2.0,3.0,81,0.00,,,0.00,,2013-01-24 02:22:00,
2013-01-23 21:33:00,62.0,56.0,30.28,NW,321,3.0,5.0,81,0.00,,,0.00,,2013-01-24 02:33:00,
2013-01-23 21:42:00,62.0,56.0,30.28,NW,321,3.0,5.0,81,0.00,,,0.00,,2013-01-24 02:42:00,
2013-01-23 21:52:00,62.0,56.0,30.28,NW,321,3.0,5.0,81,0.00,,,0.00,,2013-01-24 02:52:00,
2013-01-23 22:02:00,61.0,55.0,30.27,West,280,2.0,3.0,82,0.00,,,0.00,,2013-01-24 03:02:00,
2013-01-23 22:12:00,61.0,55.0,30.27,West,280,2.0,3.0,82,0.00,,,0.00,,2013-01-24 03:12:00,
2013-01-23 22:22:00,61.0,56.0,30.28,NNW,329,1.0,3.0,83,0.00,,,0.00,,2013-01-24 03:22:00,
2013-01-23 22:33:00,61.0,56.0,30.28,NNW,346,0.0,2.0,83,0.00,,,0.00,,2013-01-24 03:33:00,
2013-01-23 22:43:00,61.0,56.0,30.28,NNW,346,0.0,2.0,83,0.00,,,0.00,,2013-01-24 03:43:00,
2013-01-23 22:53:00,60.0,55.0,30.28,West,279,0.0,0.0,84,0.00,,,0.00,,2013-01-24 03:53:00,
2013-01-23 23:02:00,60.0,55.0,30.28,NE,47,1.0,3.0,85,0.00,,,0.00,,2013-01-24 04:02:00,
2013-01-23 23:12:00,60.0,55.0,30.28,NE,47,1.0,3.0,85,0.00,,,0.00,,2013-01-24 04:12:00,
2013-01-23 23:22:00,59.0,55.0,30.27,NW,310,0.0,0.0,86,0.00,,,0.00,,2013-01-24 04:22:00,
2013-01-23 23:33:00,59.0,55.0,30.26,NW,317,0.0,0.0,87,0.00,,,0.00,,2013-01-24 04:33:00,
2013-01-23 23:42:00,59.0,55.0,30.26,NW,317,0.0,0.0,87,0.00,,,0.00,,2013-01-24 04:42:00,
2013-01-23 23:53:00,58.0,54.0,30.26,NW,304,0.0,0.0,88,0.00,,,0.00,,2013-01-24 04:53:00,